| time (UTC) | temp C | wind direction | speed KPH | gust KPH | rain 1hr cm | rain 24hr cm | rain mn cm | humidity % | barometer mb |
| 20260506230209 | 7 | 238 | 4.8 | 0.0 | 0.00 | 0.00 | 0.00 | 91 | 1008.6 |
| 20260506223209 | 7 | 228 | 8.0 | 0.0 | 0.00 | 0.00 | 0.00 | 91 | 1008.5 |
| 20260506213209 | 8 | 239 | 9.7 | 0.0 | 0.00 | 0.00 | 0.51 | 91 | 1008.1 |
| 20260506210210 | 8 | 249 | 12.9 | 0.0 | 0.00 | 0.00 | 0.51 | 91 | 1008.1 |
| 20260506203210 | 8 | 273 | 14.5 | 0.0 | 0.00 | 0.00 | 0.51 | 91 | 1008.0 |
| 20260506200210 | 8 | 250 | 12.9 | 0.0 | 0.00 | 0.00 | 0.51 | 90 | 1007.8 |
| 20260506193215 | 8 | 282 | 14.5 | 0.0 | 0.00 | 0.00 | 0.51 | 90 | 1007.4 |
| 20260506190211 | 8 | 300 | 12.9 | 0.0 | 0.00 | 0.00 | 0.51 | 90 | 1007.1 |
| 20260506183209 | 8 | 286 | 12.9 | 0.0 | 0.00 | 0.00 | 0.51 | 90 | 1006.7 |
| 20260506180216 | 9 | 254 | 17.7 | 0.0 | 0.00 | 0.00 | 0.51 | 91 | 1006.6 |
| 20260506173210 | 9 | 232 | 20.9 | 0.0 | 0.00 | 0.00 | 0.51 | 91 | 1006.3 |
| 20260506170215 | 9 | 289 | 0.0 | 0.0 | 0.00 | 0.00 | 0.51 | 90 | 1005.7 |
| 20260506163210 | 9 | 284 | 14.5 | 0.0 | 0.00 | 0.00 | 0.51 | 90 | 1005.8 |
| 20260506160210 | 9 | 273 | 14.5 | 0.0 | 0.00 | 0.00 | 0.51 | 89 | 1005.4 |
| 20260506153210 | 10 | 304 | 22.5 | 0.0 | 0.00 | 0.00 | 0.43 | 87 | 1005.3 |
| 20260506150210 | 11 | 325 | 29.0 | 0.0 | 0.00 | 0.00 | 0.33 | 84 | 1004.7 |
| 20260506143210 | 14 | 257 | 33.8 | 0.0 | 0.00 | 0.00 | 0.13 | 76 | 1003.9 |
| 20260506140210 | 16 | 271 | 11.3 | 0.0 | 0.00 | 0.00 | 0.00 | 63 | 1003.2 |
| 20260506133211 | 16 | 275 | 6.4 | 0.0 | 0.00 | 0.00 | 0.00 | 62 | 1003.2 |
| 20260506130211 | 17 | 232 | 3.2 | 0.0 | 0.00 | 0.00 | 0.00 | 62 | 1003.2 |
| 20260506123210 | 17 | 303 | 6.4 | 0.0 | 0.00 | 0.00 | 0.00 | 60 | 1003.2 |
| 20260506120210 | 17 | 138 | 4.8 | 0.0 | 0.00 | 0.00 | 0.00 | 59 | 1003.0 |
| 20260506113217 | 16 | 113 | 3.2 | 0.0 | 0.00 | 0.00 | 0.00 | 61 | 1003.2 |
| 20260506110210 | 16 | 61 | 4.8 | 0.0 | 0.00 | 0.00 | 0.00 | 67 | 1003.5 |
| 20260506100213 | 14 | 38 | 4.8 | 0.0 | 0.00 | 0.00 | 0.00 | 74 | 1003.7 |
| 20260506093211 | 14 | 238 | 0.0 | 0.0 | 0.00 | 0.00 | 0.00 | 73 | 1004.0 |
| 20260506090211 | 14 | 275 | 4.8 | 0.0 | 0.00 | 0.00 | 0.00 | 75 | 1004.1 |
| 20260506083211 | 13 | 322 | 3.2 | 0.0 | 0.00 | 0.00 | 0.00 | 82 | 1003.9 |
| 20260506080212 | 12 | 318 | 4.8 | 0.0 | 0.00 | 0.00 | 0.00 | 86 | 1003.9 |
| 20260506073211 | 11 | 11 | 1.6 | 0.0 | 0.00 | 0.00 | 0.00 | 89 | 1004.2 |
| 20260506070212 | 11 | 5 | 3.2 | 0.0 | 0.00 | 0.00 | 0.00 | 91 | 1004.4 |
| 20260506060210 | 9 | 9 | 3.2 | 0.0 | 0.00 | 0.00 | 0.00 | 91 | 1004.0 |
| 20260506050211 | 8 | 194 | 0.0 | 0.0 | 0.00 | 0.00 | 0.00 | 89 | 1004.3 |
| 20260506043211 | 8 | 194 | 0.0 | 0.0 | 0.00 | 0.00 | 0.00 | 88 | 1004.5 |
| 20260506040211 | 8 | 194 | 0.0 | 0.0 | 0.00 | 0.00 | 0.00 | 88 | 1004.7 |
| 20260506033211 | 9 | 194 | 0.0 | 0.0 | 0.00 | 0.00 | 0.00 | 88 | 1004.9 |
| 20260506030212 | 9 | 194 | 0.0 | 0.0 | 0.00 | 0.00 | 0.00 | 88 | 1005.2 |
| 20260506023211 | 9 | 199 | 0.0 | 0.0 | 0.00 | 0.00 | 0.00 | 88 | 1005.4 |
| 20260506020212 | 9 | 198 | 0.0 | 0.0 | 0.00 | 0.00 | 0.00 | 88 | 1005.6 |
| 20260506013211 | 10 | 198 | 0.0 | 0.0 | 0.00 | 0.00 | 0.00 | 87 | 1005.8 |
| 20260506010212 | 10 | 199 | 8.0 | 0.0 | 0.00 | 0.00 | 0.00 | 87 | 1006.3 |
| 20260506003209 | 10 | 199 | 0.0 | 0.0 | 0.00 | 0.00 | 0.00 | 86 | 1006.1 |
| 20260506000211 | 10 | 199 | 1.6 | 0.0 | 0.00 | 0.00 | 0.00 | 86 | 1006.3 |
| 20260505233209 | 10 | 207 | 4.8 | 0.0 | 0.00 | 0.00 | 0.00 | 85 | 1006.5 |